Regional Weather Roundup
Issued by NWS Newport/Morehead, NC

Current Version | Previous Version | Graphics & Text | Print | Product List | Glossary Off
Versions: 1 2 3 4 5 6 7 8 9 10 11 12 13 14 15 16 17 18 19 20 21 22 23 24 25 26 27 28 29 30 31 32 33 34 35 36 37 38 39 40 41 42 43 44 45 46 47 48 49 50

000
ASUS42 KMHX 041512
RWRMHX
WEATHER ROUNDUP FOR EASTERN NORTH CAROLINA
NATIONAL WEATHER SERVICE NEWPORT/MOREHEAD CITY NC
1000 AM EST WED MAR 04 2015

NOTE: "FAIR" INDICATES FEW OR NO CLOUDS BELOW 12,000 FEET
WITH NO SIGNIFICANT WEATHER AND/OR OBSTRUCTIONS TO VISIBILITY

NCZ015>017-031-032-045>047-102-103-041600-
NORTH COAST

CITY           SKY/WX    TMP DP  RH WIND       PRES   REMARKS
EDENTON        FOG       54  54 100 SW12      30.02S VSB 1
ELIZABETH CITY CLOUDY    58  57  97 SW16      30.00S
KITTY HAWK     CLOUDY    64  62  96 SW8G16    30.00F
MANTEO         CLOUDY    59  57  94 S10       30.02F

$$

NCZ045>047-081-094-103-104-041600-
CENTRAL COAST

CITY           SKY/WX    TMP DP  RH WIND       PRES   REMARKS
FRISCO         FOG       55  55 100 SW13G21   30.06S VSB 1/4
SWANQUARTER      N/A     57 N/A N/A S17       29.97F

$$

NCZ095-097-098-100-101-041600-
SOUTHERN COAST

CITY           SKY/WX    TMP DP  RH WIND       PRES   REMARKS
BEAUFORT       FOG       58  58 100 SW15      30.08F VSB 1/4
CEDAR ISLAND     N/A     63 N/A N/A SW13G30   30.09S
JACKSONVILLE   MOSUNNY   71  62  73 SW17G28   30.06F
PINEY ISLAND     N/A    N/A N/A N/A MISG      30.06F
WILMINGTON     MOSUNNY   70  64  81 SW14      30.08F


$$

NCZ011>013-027>030-043-044-078>080-089-090>093-098-041600-
COASTAL PLAIN

CITY           SKY/WX    TMP DP  RH WIND       PRES   REMARKS
AHOSKIE        CLOUDY    53  52  97 SW5       30.01R FOG
CLINTON        CLOUDY    56  56 100 CALM      30.05F FOG
ELIZABETHTOWN  SUNNY     66  64  94 SW14      30.06S
GOLDSBORO      CLOUDY    55  55 100 SW8       30.02F FOG
GREENVILLE     FOG       55  55 100 W7        30.05S VSB 3/4
HAVELOCK       MOSUNNY   68  62  81 SW16G24   30.06F
KENANSVILLE    MOSUNNY   65  62  90 S5        30.05F
KINSTON        CLOUDY    61  61 100 SW6       30.05S FOG
NEW BERN       SUNNY     74  63  68 SW17G25   30.04F
RICHLANDS      SUNNY     70  63  78 S17       30.06F
ROCKY MOUNT    CLOUDY    50  50 100 SW13G21   30.03S FOG
WASHINGTON     MOSUNNY   63  60  92 SW9       30.03S
WHITEVILLE     PTSUNNY   69  64  82 SW10      30.07F

$$

AMZ130-135-150-152-154-156-158-170-250-252-270-ANZ085-086-088-633-658-670-041600-
MARINE OBSERVATIONS

STATION/POSITION TIME  TEMP    WIND        PRES    WAVE   SWELL
                       AIR SEA DIR/SP/G            HT/PER HT/PER
                 (UTC) (F)     (DEG/KT/KT) (MB)    (FT/S) (FT/S)
CHESAPEAKE LIGHT 1400   48     240/ 20/ 21 1015.6
64 E VA BEACH    1450   56 55  210/ 16/ 19 1015.1    6/ 8   3/ 8
DUCK             1400   54 35  230/ 14/ 16 1015.5
2 E DUCK         1411      35                N/A     3/ 7
10 NE DUCK       1422      36                N/A     5/ 7   2/11
OREGON INLET     1400   49 44  200/ 15/ 17 1017.2
HATTERAS CG      1400   55 45  230/ 11/ 15 1018.2
CAPE LOOKOUT     1500   62     220/ 12/ 15 1018.4
BEAUFORT LAB     1400   54 44  220/  5/  9 1018.0
27 SE WRIGHTSVLE NOT AVBL
5 SE WRIGHTSVLE  NOT AVBL
225 S CAPE HAT   1450   72 73  220/ 16/ 19 1024.0    6/10   3/10
41 SE CHARLESTON 1450   69 69  210/ 14/ 16 1020.1    6/ 6   3/ 9

$$



USA.gov is the U.S. government's official web portal to all federal, state and local government web resources and services.